Mackinac Island, MI

11:47 PM EDT on April 24, 2017 (GMT -0400)
Mackinac Island

Weather History for KMCD - March, 2012

Change the Weather History Date:

Thursday, March 22, 2012

  Actual Average Record
Temperature  
Mean Temperature 50 °F -  
Max Temperature 54 °F 34 °F 54 °F (1987)
Min Temperature 45 °F 21 °F -4 °F (1989)
Degree Days  
Heating Degree Days 16    
Moisture  
Dew Point 49 °F    
Average Humidity 92    
Maximum Humidity 98    
Minimum Humidity 83    
Precipitation  
Precipitation 0.26 in - - ()
Sea Level Pressure  
Sea Level Pressure 30.17 in    
Wind  
Wind Speed 4 mph (ENE)    
Max Wind Speed 10 mph    
Max Gust Speed 18 mph    
Visibility 9 miles    
Events Rain    
Averages and records for this station are not official NWS values.
T = Trace of Precipitation, MM = Missing Value Source: NWS Daily Summary

Daily Weather History Graph

Daily Weather History Graph

Search for Another Location

Airport or City:

Trip Planner

Search our weather history database for the weather conditions in past years. The results will help you decide how hot, cold, wet, or windy it might be!

Date:

Astronomy

Mar. 22, 2012 Rise Set
Actual Time 7:36 AM EDT 7:54 PM EDT
Civil Twilight 7:07 AM EDT 8:24 PM EDT
Nautical Twilight 6:32 AM EDT 8:59 PM EDT
Astronomical Twilight 5:55 AM EDT 9:35 PM EDT
Moon 7:13 AM EDT (3/22) 8:22 PM EDT (3/22)
Length of Visible Light 13h 17m
Length of Day
12h 17m
New Moon, 0% of the Moon is Illuminated
Mar 22
New Moon
Mar 30
First Quarter
Apr 6
Full
Apr 13
Last Quarter
Apr 21
New

Hourly Weather History & Observations

Time (EDT) Temp. Dew Point Humidity Pressure Visibility Wind Dir Wind Speed Gust Speed Precip Events Conditions
12:13 AM 51.1 °F 46.9 °F 86% 30.10 in 10.0 mi Calm Calm - N/A   Clear
12:33 AM 51.8 °F 46.9 °F 83% 30.11 in 10.0 mi Calm Calm - N/A   Clear
12:53 AM 51.8 °F 47.8 °F 86% 30.11 in 10.0 mi Calm Calm - N/A   Clear
1:13 AM 51.1 °F 47.7 °F 88% 30.11 in 10.0 mi Calm Calm - N/A   Clear
1:33 AM 52.0 °F 49.3 °F 90% 30.11 in 10.0 mi NE 4.6 mph - N/A   Clear
1:53 AM 54.9 °F 50.2 °F 84% 30.10 in 10.0 mi NE 3.5 mph - N/A   Clear
2:13 AM 54.3 °F 50.2 °F 86% 30.11 in 10.0 mi NE 4.6 mph - N/A   Clear
2:33 AM 54.7 °F 50.4 °F 85% 30.10 in 10.0 mi NE 5.8 mph - N/A   Clear
2:53 AM 54.5 °F 50.4 °F 86% 30.10 in 10.0 mi NE 5.8 mph - N/A   Clear
3:13 AM 54.5 °F 50.4 °F 86% 30.10 in 10.0 mi NE 5.8 mph - N/A   Clear
3:33 AM 54.0 °F 50.2 °F 87% 30.10 in 10.0 mi NNE 5.8 mph - N/A   Clear
3:53 AM 52.7 °F 50.0 °F 91% 30.11 in 10.0 mi NE 5.8 mph - N/A   Clear
4:13 AM 52.7 °F 50.2 °F 91% 30.11 in 10.0 mi NNE 4.6 mph - N/A   Scattered Clouds
4:33 AM 53.1 °F 50.5 °F 91% 30.11 in 10.0 mi NNE 5.8 mph - N/A   Overcast
4:53 AM 54.0 °F 50.7 °F 89% 30.12 in 10.0 mi NNE 5.8 mph - N/A   Overcast
5:13 AM 54.5 °F 51.3 °F 89% 30.12 in 10.0 mi NE 9.2 mph - N/A   Overcast
5:33 AM 54.5 °F 51.4 °F 89% 30.12 in 10.0 mi NNE 9.2 mph - N/A   Scattered Clouds
5:53 AM 54.5 °F 51.6 °F 90% 30.14 in 10.0 mi NE 6.9 mph - N/A   Clear
6:13 AM 53.6 °F 51.3 °F 92% 30.15 in 10.0 mi NNE 6.9 mph - N/A   Scattered Clouds
6:33 AM 53.6 °F 51.4 °F 92% 30.19 in 10.0 mi Calm Calm - N/A Rain Light Rain
6:53 AM 52.9 °F 51.8 °F 96% 30.17 in 2.5 mi NNE 5.8 mph - 0.19 in Rain Light Rain
7:13 AM 52.7 °F 51.8 °F 97% 30.16 in 7.0 mi NE 10.4 mph - N/A   Overcast
7:33 AM 52.0 °F 51.3 °F 97% 30.18 in 7.0 mi North 6.9 mph 18.4 mph N/A   Mostly Cloudy
7:53 AM 51.1 °F 50.4 °F 97% 30.17 in 10.0 mi NE 8.1 mph - N/A   Mostly Cloudy
8:13 AM 51.6 °F 50.9 °F 97% 30.17 in 10.0 mi NE 6.9 mph - N/A   Mostly Cloudy
8:33 AM 51.3 °F 50.5 °F 97% 30.19 in 5.0 mi NE 8.1 mph - N/A   Overcast
8:53 AM 51.6 °F 50.9 °F 97% 30.20 in 7.0 mi NE 8.1 mph - N/A   Mostly Cloudy
9:13 AM 52.2 °F 51.4 °F 97% 30.22 in 10.0 mi NNE 6.9 mph - N/A   Mostly Cloudy
9:33 AM 52.3 °F 51.1 °F 95% 30.22 in 10.0 mi ENE 5.8 mph - N/A Rain Light Rain
9:53 AM 52.2 °F 50.9 °F 95% 30.23 in 10.0 mi ENE 3.5 mph - N/A   Overcast
10:13 AM 52.3 °F 50.7 °F 94% 30.22 in 10.0 mi Calm Calm - N/A   Overcast
10:33 AM 52.3 °F 50.5 °F 94% 30.23 in 10.0 mi ENE 3.5 mph - N/A   Overcast
10:53 AM 52.7 °F 50.0 °F 91% 30.23 in 10.0 mi East 3.5 mph - N/A Rain Light Rain
11:13 AM 52.2 °F 49.6 °F 91% 30.24 in 10.0 mi Calm Calm - N/A Rain Light Rain
11:33 AM 51.8 °F 50.0 °F 94% 30.24 in 7.0 mi Calm Calm - 0.03 in Rain Rain
11:53 AM 51.8 °F 49.6 °F 92% 30.22 in 10.0 mi ESE 6.9 mph - 0.06 in Rain Light Rain
12:13 PM 51.1 °F 48.6 °F 91% 30.21 in 10.0 mi ESE 9.2 mph - N/A Rain Light Rain
12:33 PM 50.9 °F 48.2 °F 90% 30.21 in 10.0 mi East 6.9 mph 16.1 mph 0.01 in Rain Light Rain
12:53 PM 50.5 °F 48.2 °F 92% 30.21 in 10.0 mi East 4.6 mph - 0.01 in Rain Light Rain
1:13 PM 50.7 °F 48.6 °F 92% 30.20 in 10.0 mi SE 8.1 mph - N/A   Overcast
1:33 PM 51.4 °F 49.3 °F 92% 30.20 in 10.0 mi ESE 4.6 mph - N/A   Overcast
1:53 PM 52.5 °F 49.5 °F 89% 30.19 in 10.0 mi ESE 5.8 mph - N/A   Mostly Cloudy
2:13 PM 52.5 °F 49.1 °F 88% 30.19 in 10.0 mi ESE 4.6 mph - N/A   Mostly Cloudy
2:33 PM 51.8 °F 48.7 °F 89% 30.19 in 10.0 mi SE 4.6 mph - N/A   Overcast
2:53 PM 48.2 °F 45.3 °F 90% 30.19 in 10.0 mi Calm Calm - N/A   Overcast
3:13 PM 45.5 °F 44.4 °F 96% 30.19 in 3.0 mi Calm Calm - N/A   Overcast
3:33 PM 46.9 °F 46.4 °F 98% 30.19 in 10.0 mi East 3.5 mph - N/A   Overcast
3:53 PM 48.4 °F 47.3 °F 96% 30.19 in 10.0 mi East 5.8 mph - N/A   Overcast
4:13 PM 48.9 °F 47.5 °F 95% 30.18 in 10.0 mi East 8.1 mph - N/A   Overcast
4:33 PM 49.8 °F 48.2 °F 94% 30.18 in 10.0 mi East 6.9 mph - N/A   Overcast
4:53 PM 50.2 °F 48.6 °F 94% 30.18 in 10.0 mi East 5.8 mph - N/A Rain Light Rain
5:13 PM 50.0 °F 48.4 °F 94% 30.18 in 10.0 mi East 4.6 mph - N/A   Overcast
5:33 PM 50.0 °F 48.2 °F 94% 30.17 in 10.0 mi East 8.1 mph - N/A   Mostly Cloudy
6:33 PM 49.3 °F 46.9 °F 92% 30.17 in 10.0 mi East 9.2 mph - N/A   Scattered Clouds
6:53 PM 48.2 °F 45.9 °F 92% 30.17 in 10.0 mi East 5.8 mph - N/A   Mostly Cloudy
7:13 PM 48.2 °F 46.2 °F 93% 30.17 in 10.0 mi East 5.8 mph - N/A   Mostly Cloudy
7:33 PM 48.4 °F 46.4 °F 93% 30.17 in 10.0 mi East 6.9 mph - N/A   Mostly Cloudy
7:53 PM 48.6 °F 46.4 °F 92% 30.18 in 10.0 mi East 6.9 mph - N/A   Scattered Clouds
8:13 PM 47.7 °F 45.9 °F 93% 30.20 in 10.0 mi East 4.6 mph - N/A   Mostly Cloudy
8:33 PM 48.7 °F 46.8 °F 93% 30.20 in 10.0 mi East 5.8 mph - N/A   Mostly Cloudy
9:13 PM 48.4 °F 46.8 °F 94% 30.20 in 10.0 mi East 6.9 mph - N/A   Scattered Clouds
9:33 PM 47.7 °F 46.4 °F 95% 30.20 in 10.0 mi East 4.6 mph - N/A   Scattered Clouds
9:53 PM 48.6 °F 47.3 °F 95% 30.21 in 10.0 mi East 4.6 mph - N/A   Mostly Cloudy
10:13 PM 50.0 °F 48.2 °F 94% 30.20 in 10.0 mi East 6.9 mph - N/A   Overcast
10:33 PM 49.1 °F 47.3 °F 93% 30.20 in 10.0 mi East 6.9 mph - N/A   Scattered Clouds
10:53 PM 49.1 °F 47.1 °F 93% 30.20 in 10.0 mi East 5.8 mph - N/A   Mostly Cloudy
11:13 PM 50.7 °F 47.5 °F 89% 30.20 in 10.0 mi East 6.9 mph - N/A   Mostly Cloudy
11:33 PM 50.2 °F 47.3 °F 90% 30.20 in 10.0 mi East 8.1 mph - N/A   Mostly Cloudy
11:53 PM 50.0 °F 47.3 °F 90% 30.19 in 10.0 mi East 6.9 mph - N/A   Overcast